Regional Weather Roundup
Issued by NWS

Home | Current Version | Previous Version | Text Only | Print | Product List | Glossary Off
Versions: 1 2 3 4 5 6 7 8 9 10 11 12 13 14 15 16 17 18 19 20 21 22 23 24 25 26 27 28 29 30 31 32 33 34 35 36 37 38 39 40 41 42 43 44 45 46 47 48 49 50

000
ASUS43 KMPX 301910
RWRMN
WEATHER ROUNDUP FOR MINNESOTA
NATIONAL WEATHER SERVICE TWIN CITIES/CHANHASSEN MN
200 PM CDT MON MAR 30 2015


NOTE: "FAIR" INDICATES FEW OR NO CLOUDS BELOW 12,000 FEET WITH NO
SIGNIFICANT WEATHER AND/OR OBSTRUCTIONS TO VISIBILITY. N/A MEANS
CURRENT SKY AND/OR WEATHER CONDITIONS ARE NOT AVAILABLE.

MNZ060>063-068>070-302000-
   Twin Cities Metro

CITY           SKY/WX    TMP DP  RH WIND       PRES   REMARKS
TWIN CITIES    CLOUDY    51  31  46 SE14      29.88F
ST PAUL        CLOUDY    51  33  50 SE10      29.89F
CRYSTAL        CLOUDY    53  31  42 SE8       29.86F
BLAINE         PTSUNNY   54  36  50 SE12      29.87F
LAKEVILLE      CLOUDY    50  34  53 SE10      29.88F
EDEN PRAIRIE   CLOUDY    53  30  41 SE12      29.87F
SOUTH ST PAUL  CLOUDY    51  32  47 SE8       29.87F
LAKE ELMO      FAIR      50  36  57 E15       29.88F
$$
MNZ001>005-007-008-013>017-022>024-027-028-302000-
   Northwest Minnesota

CITY           SKY/WX    TMP DP  RH WIND       PRES   REMARKS
BEMIDJI        RAIN      39  35  84 NE5       29.85R
HALLOCK        PTSUNNY   46  37  71 SW10      29.86S
ROSEAU         CLOUDY    46  37  71 SW7       29.86R
WARROAD        PTSUNNY   45  36  70 W9        29.86S
THIEF RVR FALL CLOUDY    41  36  81 CALM      29.87F
CROOKSTON      LGT RAIN  43  37  81 E10       29.87S
FOSSTON        LGT RAIN  37  36  93 NE3       29.87R
DETROIT LAKES  CLOUDY    50  32  50 E8G17     29.81R
MOORHEAD       MOSUNNY   57  34  41 SW8       29.81R
PARK RAPIDS    LGT RAIN  44  34  67 E5        29.82F
MAHNOMEN       CLOUDY    44  38  78 E7        29.83R
$$
MNZ006-009>011-018-025>026-302000-
   North Central Minnesota

CITY           SKY/WX    TMP DP  RH WIND       PRES   REMARKS
BAUDETTE       CLOUDY    48  32  53 W7        29.84S
FLAG ISLAND    MOSUNNY   36  30  80 SE8       29.83F
INTL FALLS     PTSUNNY   50  23  34 NW6       29.83F
WASKISH        CLOUDY    43  34  70 CALM      29.85S
BIG FORK       PTSUNNY   48  28  46 S3        29.84S
LONGVILLE      LGT RAIN  39  36  87 CALM      29.84F
GRAND RAPIDS   CLOUDY    45  28  53 S9        29.83F
CRANE LAKE     PTSUNNY   46  19  34 NE3       29.86F
ORR            PTSUNNY   48  18  29 CALM      29.81F
COOK           PTSUNNY   48  21  34 W5        29.83F
WALKER         DRIZZLE   38  33  84 E5        29.83F
$$
MNZ012-019>021-037-302000-
   Northeast Minnesota

CITY           SKY/WX    TMP DP  RH WIND       PRES   REMARKS
DULUTH         CLOUDY    49  24  37 SW6       29.85F
ELY            PTSUNNY   48  18  29 N5        29.83F
HIBBING        CLOUDY    51  24  34 VRB6      29.82F
EVELETH        CLOUDY    52  27  37 CALM      29.84F
DULUTH HARBOR  CLOUDY    52  27  37 CALM      29.87F
TWO HARBORS    CLOUDY    54  32  43 SW10      29.83F
SILVER BAY     CLOUDY    54  23  30 S8        29.83F
GRAND MARAIS     N/A     41  31  67 SW9       29.88F
G MARAIS ARPRT SUNNY     43  18  36 NW9G18    29.84F
$$
MNZ029>031-032-039>041-046>048-054>057-064-302000-
   West Central Minnesota

CITY           SKY/WX    TMP DP  RH WIND       PRES   REMARKS
FERGUS FALLS   MOSUNNY   55  28  35 SE10      29.80F
WHEATON        SUNNY     66  34  30 W12       29.78F
MORRIS         SUNNY     64  37  36 S3        29.78F
ALEXANDRIA     PTSUNNY   53  34  48 SE13G18   29.82F
ELBOW LAKE     FAIR      56  35  44 SE10      29.79F
WADENA         CLOUDY    48  32  53 E13       29.79F
GLENWOOD       PTSUNNY   57  30  35 S8        29.82F
APPLETON       SUNNY     72  27  18 NW14G21   29.78F
BENSON         MOSUNNY   64  30  27 SW3       29.80F
ORTONVILLE     SUNNY     70  28  21 W14G22    29.78F
MADISON        SUNNY     72  25  17 W22G29    29.78F
WILLMAR        FAIR      61  34  36 SE6       29.82F
$$
MNZ033>034-036-042>043-049>051-058-059-302000-
   Central Minnesota

CITY           SKY/WX    TMP DP  RH WIND       PRES   REMARKS
ST CLOUD       PTSUNNY   52  36  54 SE12G17   29.84F
SAUK CENTRE    FAIR      52  35  52 SE13G21   29.82F
PAYNESVILLE    CLOUDY    51  33  50 E10       29.83F
AITKIN         MIX PCPN  45  39  81 E5        29.84F
PINE RIVER     CLOUDY    43  36  75 SE9       29.87F
BRAINERD       LGT RAIN  43  36  76 NE3       29.86F
STAPLES        CLOUDY    45  30  57 E10       29.82F
LONG PRAIRIE   PTSUNNY   50  34  53 SE10      29.83F
LITTLE FALLS   PTSUNNY   54  32  43 SE10      29.84F
LITCHFIELD     PTSUNNY   57  34  41 CALM      29.83F
BUFFALO        CLOUDY    52  32  46 SE10      29.87F
MAPLE LAKE     CLOUDY    53  34  49 SE8       29.87S
$$
MNZ037-044-045-052-053-302000-
   East Central Minnesota

CITY           SKY/WX    TMP DP  RH WIND       PRES   REMARKS
PRINCETON      CLOUDY    52  36  54 E7        29.87F
MORA           PTSUNNY   50  36  57 E9        29.87F
CAMBRIDGE      CLOUDY    52  37  58 E7        29.84F
RUSH CITY      CLOUDY    46  36  66 SE10      29.88F
MOOSE LAKE     DRIZZLE   37  34  87 CALM      29.86F
HINCKLEY       MOCLDY    46  37  71 E9        29.88F
CLOQUET        CLOUDY    46  27  46 SE5       29.86F
MCGREGOR       CLOUDY    41  37  87 S7        29.87F
$$
MNZ071>073-080-081-089-090-097-098-302000-
   Southwest Minnesota

CITY           SKY/WX    TMP DP  RH WIND       PRES   REMARKS
MONTEVIDEO     SUNNY     73  32  21 N10G22    29.79F
GRANITE FALLS  SUNNY     71  30  21 W22       29.82F
CANBY          SUNNY     72  26  18 W18G26    29.81F
MARSHALL       MOSUNNY   70  27  19 W25G32    29.82F
REDWOOD FALLS  SUNNY     72  28  19 W22G30    29.80F
OLIVIA         MOSUNNY   59  39  47 E7        29.81F
PIPESTONE      MOSUNNY   70  23  17 NW13G26   29.85F
WINDOM         MOSUNNY   70  21  16 W14G24    29.84F
WORTHINGTON    PTSUNNY   66  25  20 W21       29.87F
JACKSON        PTSUNNY   66  19  16 SW21      29.86F
TRACY          MOSUNNY   71  29  20 W15G21    29.83F
SLAYTON        MOSUNNY   68  16  13 W18G24    29.85F
$$
MNZ065>067-074>077-082>085-091>093-302000-
   South Central Minnesota

CITY           SKY/WX    TMP DP  RH WIND       PRES   REMARKS
MANKATO        PTSUNNY   66  28  24 N5        29.83F
NEW ULM        MOSUNNY   72  27  18 W18G24    29.81F
FAIRMONT       MOSUNNY   68  16  13 SW22G29   29.84F
GLENCOE        PTSUNNY   54  38  56 E13       29.84F
FARIBAULT      CLOUDY    55  34  44 E8        29.88F
OWATONNA       CLOUDY    54  36  50 E13       29.87F
WASECA         CLOUDY    61  30  31 SW5       29.87F
ALBERT LEA     CLOUDY    64  27  24 SW10G20   29.85F
$$
MNZ078>079-086>088-094>096-302000-
   Southeast Minnesota

CITY           SKY/WX    TMP DP  RH WIND       PRES   REMARKS
ROCHESTER      CLOUDY    53  35  50 SE9       29.91F
RED WING       CLOUDY    48  30  49 SE9       29.90F
STANTON        CLOUDY    55  32  41 SE8       29.88F
DODGE CENTER   CLOUDY    52  39  62 E8        29.89F
WINONA         CLOUDY    54  32  43 E6        29.93F
AUSTIN         CLOUDY    61  32  33 SW12      29.87F
PRESTON        CLOUDY    53  31  44 E7        29.92F
$$
ABBREVIATIONS USED IN REMARKS
   TC - TEMPERATURES IN CELSIUS
  WCI - WIND CHILL INDEX
   HX - HEAT INDEX
  VSB - VISIBILITY
$$


USA.gov is the U.S. government's official web portal to all federal, state and local government web resources and services.